Year,Month,Day,Hour,Minute,Value (Times are PST for temperature in C)
2018,07,14,00,00,16.30
2018,07,14,00,01,16.30
2018,07,14,00,02,16.30
2018,07,14,00,03,16.30
2018,07,14,00,04,16.20
2018,07,14,00,05,16.20
2018,07,14,00,06,16.20
2018,07,14,00,07,16.20
2018,07,14,00,08,16.20
2018,07,14,00,09,16.20
2018,07,14,00,10,16.10
2018,07,14,00,11,16.10
2018,07,14,00,12,16.10
2018,07,14,00,13,16.10
2018,07,14,00,14,16.10
2018,07,14,00,15,16.00
2018,07,14,00,16,16.00
2018,07,14,00,17,16.00
2018,07,14,00,18,16.00
2018,07,14,00,19,15.90
2018,07,14,00,20,15.90
2018,07,14,00,21,15.90
2018,07,14,00,22,15.90
2018,07,14,00,23,15.90
2018,07,14,00,24,15.80
2018,07,14,00,25,15.80
2018,07,14,00,26,15.80
2018,07,14,00,27,15.80
2018,07,14,00,28,15.80
2018,07,14,00,29,15.80
2018,07,14,00,30,15.80
2018,07,14,00,31,15.70
2018,07,14,00,32,15.70
2018,07,14,00,33,15.70
2018,07,14,00,34,15.70
2018,07,14,00,35,15.70
2018,07,14,00,36,15.70
2018,07,14,00,37,15.70
2018,07,14,00,38,15.60
2018,07,14,00,39,15.60
2018,07,14,00,40,15.60
2018,07,14,00,41,15.60
2018,07,14,00,42,15.60
2018,07,14,00,43,15.60
2018,07,14,00,44,15.50
2018,07,14,00,45,15.50
2018,07,14,00,46,15.40
2018,07,14,00,47,15.40
2018,07,14,00,48,15.40
2018,07,14,00,49,15.40
2018,07,14,00,50,15.40
2018,07,14,00,51,15.40
2018,07,14,00,52,15.40
2018,07,14,00,53,15.40
2018,07,14,00,54,15.40
2018,07,14,00,55,15.40
2018,07,14,00,56,15.40
2018,07,14,00,57,15.40
2018,07,14,00,58,15.30
2018,07,14,00,59,15.30
2018,07,14,01,00,15.30
2018,07,14,01,01,15.30
2018,07,14,01,02,15.30
2018,07,14,01,03,15.30
2018,07,14,01,04,15.30
2018,07,14,01,05,15.30
2018,07,14,01,06,15.30
2018,07,14,01,07,15.30
2018,07,14,01,08,15.30
2018,07,14,01,09,15.30
2018,07,14,01,10,15.30
2018,07,14,01,11,15.30
2018,07,14,01,12,15.30
2018,07,14,01,13,15.30
2018,07,14,01,14,15.30
2018,07,14,01,15,15.30
2018,07,14,01,16,15.30
2018,07,14,01,17,15.20
2018,07,14,01,18,15.20
2018,07,14,01,19,15.20
2018,07,14,01,20,15.10
2018,07,14,01,21,15.10
2018,07,14,01,22,15.10
2018,07,14,01,23,15.10
2018,07,14,01,24,15.10
2018,07,14,01,25,15.00
2018,07,14,01,26,15.00
2018,07,14,01,27,15.00
2018,07,14,01,28,14.90
2018,07,14,01,29,14.90
2018,07,14,01,30,14.90
2018,07,14,01,31,14.90
2018,07,14,01,32,14.90
2018,07,14,01,33,14.90
2018,07,14,01,34,14.90
2018,07,14,01,35,14.90
2018,07,14,01,36,14.90
2018,07,14,01,37,14.90
2018,07,14,01,38,14.90
2018,07,14,01,39,14.90
2018,07,14,01,40,14.90
2018,07,14,01,41,14.90
2018,07,14,01,42,14.90
2018,07,14,01,43,14.90
2018,07,14,01,44,14.90
2018,07,14,01,45,14.90
2018,07,14,01,46,14.80
2018,07,14,01,47,14.80
2018,07,14,01,48,14.70
2018,07,14,01,49,14.70
2018,07,14,01,50,14.70
2018,07,14,01,51,14.60
2018,07,14,01,52,14.60
2018,07,14,01,53,14.60
2018,07,14,01,54,14.60
2018,07,14,01,55,14.60
2018,07,14,01,56,14.60
2018,07,14,01,57,14.60
2018,07,14,01,58,14.50
2018,07,14,01,59,14.50
2018,07,14,02,00,14.50
2018,07,14,02,01,14.40
2018,07,14,02,02,14.40
2018,07,14,02,03,14.40
2018,07,14,02,04,14.40
2018,07,14,02,05,14.40
2018,07,14,02,06,14.40
2018,07,14,02,07,14.40
2018,07,14,02,08,14.40
2018,07,14,02,09,14.40
2018,07,14,02,10,14.40
2018,07,14,02,11,14.40
2018,07,14,02,12,14.40
2018,07,14,02,13,14.40
2018,07,14,02,14,14.40
2018,07,14,02,15,14.40
2018,07,14,02,16,14.40
2018,07,14,02,17,14.40
2018,07,14,02,18,14.40
2018,07,14,02,19,14.40
2018,07,14,02,20,14.40
2018,07,14,02,21,14.40
2018,07,14,02,22,14.40
2018,07,14,02,23,14.40
2018,07,14,02,24,14.40
2018,07,14,02,25,14.40
2018,07,14,02,26,14.30
2018,07,14,02,27,14.30
2018,07,14,02,28,14.30
2018,07,14,02,29,14.30
2018,07,14,02,30,14.30
2018,07,14,02,31,14.30
2018,07,14,02,32,14.20
2018,07,14,02,33,14.20
2018,07,14,02,34,14.20
2018,07,14,02,35,14.10
2018,07,14,02,36,14.10
2018,07,14,02,37,14.10
2018,07,14,02,38,14.10
2018,07,14,02,39,14.10
2018,07,14,02,40,14.10
2018,07,14,02,41,14.10
2018,07,14,02,42,14.00
2018,07,14,02,43,14.00
2018,07,14,02,44,13.90
2018,07,14,02,45,13.90
2018,07,14,02,46,13.90
2018,07,14,02,47,13.90
2018,07,14,02,48,13.90
2018,07,14,02,49,13.90
2018,07,14,02,50,13.90
2018,07,14,02,51,13.90
2018,07,14,02,52,13.90
2018,07,14,02,53,13.90
2018,07,14,02,54,13.80
2018,07,14,02,55,13.80
2018,07,14,02,56,13.80
2018,07,14,02,57,13.80
2018,07,14,02,58,13.80
2018,07,14,02,59,13.80
2018,07,14,03,00,13.80
2018,07,14,03,01,13.80
2018,07,14,03,02,13.80
2018,07,14,03,03,13.80
2018,07,14,03,04,13.80
2018,07,14,03,05,13.80
2018,07,14,03,06,13.80
2018,07,14,03,07,13.80
2018,07,14,03,08,13.70
2018,07,14,03,09,13.70
2018,07,14,03,10,13.70
2018,07,14,03,11,13.70
2018,07,14,03,12,13.70
2018,07,14,03,13,13.70
2018,07,14,03,14,13.70
2018,07,14,03,15,13.70
2018,07,14,03,16,13.70
2018,07,14,03,17,13.70
2018,07,14,03,18,13.60
2018,07,14,03,19,13.60
2018,07,14,03,20,13.60
2018,07,14,03,21,13.60
2018,07,14,03,22,13.60
2018,07,14,03,23,13.60
2018,07,14,03,24,13.60
2018,07,14,03,25,13.60
2018,07,14,03,26,13.60
2018,07,14,03,27,13.60
2018,07,14,03,28,13.60
2018,07,14,03,29,13.60
2018,07,14,03,30,13.60
2018,07,14,03,31,13.60
2018,07,14,03,32,13.60
2018,07,14,03,33,13.50
2018,07,14,03,34,13.50
2018,07,14,03,35,13.50
2018,07,14,03,36,13.50
2018,07,14,03,37,13.50
2018,07,14,03,38,13.40
2018,07,14,03,39,13.40
2018,07,14,03,40,13.40
2018,07,14,03,41,13.40
2018,07,14,03,42,13.40
2018,07,14,03,43,13.30
2018,07,14,03,44,13.30
2018,07,14,03,45,13.30
2018,07,14,03,46,13.30
2018,07,14,03,47,13.30
2018,07,14,03,48,13.30
2018,07,14,03,49,13.30
2018,07,14,03,50,13.30
2018,07,14,03,51,13.30
2018,07,14,03,52,13.30
2018,07,14,03,53,13.30
2018,07,14,03,54,13.30
2018,07,14,03,55,13.30
2018,07,14,03,56,13.30
2018,07,14,03,57,13.30
2018,07,14,03,58,13.30
2018,07,14,03,59,13.30
2018,07,14,04,00,13.20
2018,07,14,04,01,13.20
2018,07,14,04,02,13.20
2018,07,14,04,03,13.20
2018,07,14,04,04,13.20
2018,07,14,04,05,13.10
2018,07,14,04,06,13.10
2018,07,14,04,07,13.10
2018,07,14,04,08,13.10
2018,07,14,04,09,13.10
2018,07,14,04,10,13.10
2018,07,14,04,11,13.20
2018,07,14,04,12,13.10
2018,07,14,04,13,13.20
2018,07,14,04,14,13.20
2018,07,14,04,15,13.20
2018,07,14,04,16,13.20
2018,07,14,04,17,13.20
2018,07,14,04,18,13.20
2018,07,14,04,19,13.20
2018,07,14,04,20,13.20
2018,07,14,04,21,13.20
2018,07,14,04,22,13.20
2018,07,14,04,23,13.20
2018,07,14,04,24,13.20
2018,07,14,04,25,13.20
2018,07,14,04,26,13.20
2018,07,14,04,27,13.20
2018,07,14,04,28,13.20
2018,07,14,04,29,13.20
2018,07,14,04,30,13.10
2018,07,14,04,31,13.10
2018,07,14,04,32,13.10
2018,07,14,04,33,13.10
2018,07,14,04,34,13.10
2018,07,14,04,35,13.10
2018,07,14,04,36,13.10
2018,07,14,04,37,13.10
2018,07,14,04,38,13.10
2018,07,14,04,39,13.10
2018,07,14,04,40,13.10
2018,07,14,04,41,13.10
2018,07,14,04,42,13.10
2018,07,14,04,43,13.10
2018,07,14,04,44,13.10
2018,07,14,04,45,13.10
2018,07,14,04,46,13.10
2018,07,14,04,47,13.10
2018,07,14,04,48,13.10
2018,07,14,04,49,13.10
2018,07,14,04,50,13.10
2018,07,14,04,51,13.10
2018,07,14,04,52,13.10
2018,07,14,04,53,13.10
2018,07,14,04,54,13.10
2018,07,14,04,55,13.10
2018,07,14,04,56,13.10
2018,07,14,04,57,13.10
2018,07,14,04,58,13.00
2018,07,14,04,59,13.00
2018,07,14,05,00,13.00
2018,07,14,05,01,13.00
2018,07,14,05,02,13.00
2018,07,14,05,03,13.00
2018,07,14,05,04,13.00
2018,07,14,05,05,13.10
2018,07,14,05,06,13.10
2018,07,14,05,07,13.10
2018,07,14,05,08,13.10
2018,07,14,05,09,13.10
2018,07,14,05,10,13.00
2018,07,14,05,11,13.00
2018,07,14,05,12,13.00
2018,07,14,05,13,13.00
2018,07,14,05,14,13.00
2018,07,14,05,15,13.00
2018,07,14,05,16,13.00
2018,07,14,05,17,12.90
2018,07,14,05,18,12.90
2018,07,14,05,19,12.90
2018,07,14,05,20,12.90
2018,07,14,05,21,12.80
2018,07,14,05,22,12.80
2018,07,14,05,23,12.80
2018,07,14,05,24,12.80
2018,07,14,05,25,12.80
2018,07,14,05,26,12.80
2018,07,14,05,27,12.80
2018,07,14,05,28,12.80
2018,07,14,05,29,12.80
2018,07,14,05,30,12.80
2018,07,14,05,31,12.80
2018,07,14,05,32,12.80
2018,07,14,05,33,12.80
2018,07,14,05,34,12.80
2018,07,14,05,35,12.80
2018,07,14,05,36,12.80
2018,07,14,05,37,12.80
2018,07,14,05,38,12.80
2018,07,14,05,39,12.80
2018,07,14,05,40,12.80
2018,07,14,05,41,12.80
2018,07,14,05,42,12.80
2018,07,14,05,43,12.80
2018,07,14,05,44,12.80
2018,07,14,05,45,12.80
2018,07,14,05,46,12.80
2018,07,14,05,47,12.80
2018,07,14,05,48,12.80
2018,07,14,05,49,12.80
2018,07,14,05,50,12.80
2018,07,14,05,51,12.80
2018,07,14,05,52,12.80
2018,07,14,05,53,12.80
2018,07,14,05,54,12.80
2018,07,14,05,55,12.80
2018,07,14,05,56,12.80
2018,07,14,05,57,12.90
2018,07,14,05,58,12.90
2018,07,14,05,59,12.90
2018,07,14,06,00,12.90
2018,07,14,06,01,12.90
2018,07,14,06,02,12.90
2018,07,14,06,03,13.00
2018,07,14,06,04,13.00
2018,07,14,06,05,13.00
2018,07,14,06,06,13.10
2018,07,14,06,07,13.10
2018,07,14,06,08,13.10
2018,07,14,06,09,13.10
2018,07,14,06,10,13.10
2018,07,14,06,11,13.10
2018,07,14,06,12,13.10
2018,07,14,06,13,13.20
2018,07,14,06,14,13.20
2018,07,14,06,15,13.20
2018,07,14,06,16,13.20
2018,07,14,06,17,13.20
2018,07,14,06,18,13.30
2018,07,14,06,19,13.30
2018,07,14,06,20,13.30
2018,07,14,06,21,13.30
2018,07,14,06,22,13.30
2018,07,14,06,23,13.30
2018,07,14,06,24,13.30
2018,07,14,06,25,13.30
2018,07,14,06,26,13.30
2018,07,14,06,27,13.40
2018,07,14,06,28,13.40
2018,07,14,06,29,13.40
2018,07,14,06,30,13.40
2018,07,14,06,31,13.40
2018,07,14,06,32,13.40
2018,07,14,06,33,13.40
2018,07,14,06,34,13.40
2018,07,14,06,35,13.40
2018,07,14,06,36,13.40
2018,07,14,06,37,13.40
2018,07,14,06,38,13.50
2018,07,14,06,39,13.50
2018,07,14,06,40,13.50
2018,07,14,06,41,13.50
2018,07,14,06,42,13.60
2018,07,14,06,43,13.60
2018,07,14,06,44,13.70
2018,07,14,06,45,13.80
2018,07,14,06,46,13.90
2018,07,14,06,47,13.90
2018,07,14,06,48,14.00
2018,07,14,06,49,14.10
2018,07,14,06,50,14.10
2018,07,14,06,51,14.20
2018,07,14,06,52,14.30
2018,07,14,06,53,14.40
2018,07,14,06,54,14.50
2018,07,14,06,55,14.50
2018,07,14,06,56,14.60
2018,07,14,06,57,14.70
2018,07,14,06,58,14.80
2018,07,14,06,59,14.80
2018,07,14,07,00,14.90
2018,07,14,07,01,15.00
2018,07,14,07,02,15.10
2018,07,14,07,03,15.10
2018,07,14,07,04,15.20
2018,07,14,07,05,15.30
2018,07,14,07,06,15.30
2018,07,14,07,07,15.50
2018,07,14,07,08,15.70
2018,07,14,07,09,15.80
2018,07,14,07,10,16.00
2018,07,14,07,11,16.10
2018,07,14,07,12,16.20
2018,07,14,07,13,16.30
2018,07,14,07,14,16.40
2018,07,14,07,15,16.60
2018,07,14,07,16,16.70
2018,07,14,07,17,16.80
2018,07,14,07,18,16.90
2018,07,14,07,19,17.10
2018,07,14,07,20,17.20
2018,07,14,07,21,17.30
2018,07,14,07,22,17.30
2018,07,14,07,23,17.30
2018,07,14,07,24,17.40
2018,07,14,07,25,17.40
2018,07,14,07,26,17.50
2018,07,14,07,27,17.60
2018,07,14,07,28,17.70
2018,07,14,07,29,17.80
2018,07,14,07,30,17.90
2018,07,14,07,31,17.90
2018,07,14,07,32,18.00
2018,07,14,07,33,18.10
2018,07,14,07,34,18.10
2018,07,14,07,35,18.20
2018,07,14,07,36,18.20
2018,07,14,07,37,18.20
2018,07,14,07,38,18.20
2018,07,14,07,39,18.30
2018,07,14,07,40,18.30
2018,07,14,07,41,18.40
2018,07,14,07,42,18.40
2018,07,14,07,43,18.40
2018,07,14,07,44,18.40
2018,07,14,07,45,18.50
2018,07,14,07,46,18.50
2018,07,14,07,47,18.60
2018,07,14,07,48,18.70
2018,07,14,07,49,18.80
2018,07,14,07,50,18.80
2018,07,14,07,51,18.90
2018,07,14,07,52,19.00
2018,07,14,07,53,19.00
2018,07,14,07,54,19.10
2018,07,14,07,55,19.20
2018,07,14,07,56,19.20
2018,07,14,07,57,19.30
2018,07,14,07,58,19.30
2018,07,14,07,59,19.30
2018,07,14,08,00,19.40
2018,07,14,08,01,19.50
2018,07,14,08,02,19.50
2018,07,14,08,03,19.40
2018,07,14,08,04,19.40
2018,07,14,08,05,19.40
2018,07,14,08,06,19.40
2018,07,14,08,07,19.30
2018,07,14,08,08,19.30
2018,07,14,08,09,19.30
2018,07,14,08,10,19.30
2018,07,14,08,11,19.40
2018,07,14,08,12,19.40
2018,07,14,08,13,19.40
2018,07,14,08,14,19.40
2018,07,14,08,15,19.40
2018,07,14,08,16,19.40
2018,07,14,08,17,19.50
2018,07,14,08,18,19.60
2018,07,14,08,19,19.60
2018,07,14,08,20,19.70
2018,07,14,08,21,19.80
2018,07,14,08,22,19.80
2018,07,14,08,23,19.90
2018,07,14,08,24,20.00
2018,07,14,08,25,20.10
2018,07,14,08,26,20.20
2018,07,14,08,27,20.20
2018,07,14,08,28,20.30
2018,07,14,08,29,20.30
2018,07,14,08,30,20.30
2018,07,14,08,31,20.20
2018,07,14,08,32,20.10
2018,07,14,08,33,20.10
2018,07,14,08,34,20.00
2018,07,14,08,35,20.00
2018,07,14,08,36,20.00
2018,07,14,08,37,20.00
2018,07,14,08,38,20.10
2018,07,14,08,39,20.10
2018,07,14,08,40,20.10
2018,07,14,08,41,20.10
2018,07,14,08,42,20.10
2018,07,14,08,43,20.10
2018,07,14,08,44,20.10
2018,07,14,08,45,20.10
2018,07,14,08,46,20.20
2018,07,14,08,47,20.20
2018,07,14,08,48,20.20
2018,07,14,08,49,20.20
2018,07,14,08,50,20.10
2018,07,14,08,51,20.10
2018,07,14,08,52,20.20
2018,07,14,08,53,20.30
2018,07,14,08,54,20.40
2018,07,14,08,55,20.50
2018,07,14,08,56,20.50
2018,07,14,08,57,20.50
2018,07,14,08,58,20.40
2018,07,14,08,59,20.30
2018,07,14,09,00,20.30
2018,07,14,09,01,20.30
2018,07,14,09,02,20.30
2018,07,14,09,03,20.40
2018,07,14,09,04,20.40
2018,07,14,09,05,20.50
2018,07,14,09,06,20.60
2018,07,14,09,07,20.60
2018,07,14,09,08,20.60
2018,07,14,09,09,20.60
2018,07,14,09,10,20.60
2018,07,14,09,11,20.50
2018,07,14,09,12,20.40
2018,07,14,09,13,20.40
2018,07,14,09,14,20.40
2018,07,14,09,15,20.50
2018,07,14,09,16,20.50
2018,07,14,09,17,20.60
2018,07,14,09,18,20.60
2018,07,14,09,19,20.70
2018,07,14,09,20,20.70
2018,07,14,09,21,20.60
2018,07,14,09,22,20.60
2018,07,14,09,23,20.60
2018,07,14,09,24,20.60
2018,07,14,09,25,20.60
2018,07,14,09,26,20.50
2018,07,14,09,27,20.30
2018,07,14,09,28,20.30
2018,07,14,09,29,20.30
2018,07,14,09,30,20.30
2018,07,14,09,31,20.30
2018,07,14,09,32,20.30
2018,07,14,09,33,20.40
2018,07,14,09,34,20.50
2018,07,14,09,35,20.60
2018,07,14,09,36,20.60
2018,07,14,09,37,20.60
2018,07,14,09,38,20.60
2018,07,14,09,39,20.70
2018,07,14,09,40,20.80
2018,07,14,09,41,20.80
2018,07,14,09,42,20.80
2018,07,14,09,43,20.80
2018,07,14,09,44,20.80
2018,07,14,09,45,20.90
2018,07,14,09,46,20.80
2018,07,14,09,47,20.80
2018,07,14,09,48,20.80
2018,07,14,09,49,20.80
2018,07,14,09,50,20.90
2018,07,14,09,51,20.90
2018,07,14,09,52,20.90
2018,07,14,09,53,21.00
2018,07,14,09,54,21.10
2018,07,14,09,55,21.10
2018,07,14,09,56,21.20
2018,07,14,09,57,21.20
2018,07,14,09,58,21.30
2018,07,14,09,59,21.40
2018,07,14,10,00,21.40
2018,07,14,10,01,21.40
2018,07,14,10,02,21.50
2018,07,14,10,03,21.60
2018,07,14,10,04,21.70
2018,07,14,10,05,21.80
2018,07,14,10,06,21.80
2018,07,14,10,07,21.90
2018,07,14,10,08,22.00
2018,07,14,10,09,22.10
2018,07,14,10,10,22.20
2018,07,14,10,11,22.30
2018,07,14,10,12,22.40
2018,07,14,10,13,22.50
2018,07,14,10,14,22.60
2018,07,14,10,15,22.70
2018,07,14,10,16,22.80
2018,07,14,10,17,22.90
2018,07,14,10,18,23.10
2018,07,14,10,19,23.10
2018,07,14,10,20,23.00
2018,07,14,10,21,23.00
2018,07,14,10,22,23.00
2018,07,14,10,23,23.00
2018,07,14,10,24,23.00
2018,07,14,10,25,23.00
2018,07,14,10,26,23.00
2018,07,14,10,27,22.90
2018,07,14,10,28,22.80
2018,07,14,10,29,22.80
2018,07,14,10,30,22.90
2018,07,14,10,31,23.10
2018,07,14,10,32,23.20
2018,07,14,10,33,23.20
2018,07,14,10,34,23.30
2018,07,14,10,35,23.30
2018,07,14,10,36,23.40
2018,07,14,10,37,23.50
2018,07,14,10,38,23.50
2018,07,14,10,39,23.50
2018,07,14,10,40,23.50
2018,07,14,10,41,23.60
2018,07,14,10,42,23.50
2018,07,14,10,43,23.50
2018,07,14,10,44,23.60
2018,07,14,10,45,23.70
2018,07,14,10,46,23.80
2018,07,14,10,47,24.00
2018,07,14,10,48,24.10
2018,07,14,10,49,24.10
2018,07,14,10,50,24.10
2018,07,14,10,51,24.10
2018,07,14,10,52,24.20
2018,07,14,10,53,24.30
2018,07,14,10,54,24.30
2018,07,14,10,55,24.30
2018,07,14,10,56,24.30
2018,07,14,10,57,24.30
2018,07,14,10,58,24.30
2018,07,14,10,59,24.20
2018,07,14,11,00,24.20
2018,07,14,11,01,24.10
2018,07,14,11,02,24.00
2018,07,14,11,03,23.80
2018,07,14,11,04,23.80
2018,07,14,11,05,23.80
2018,07,14,11,06,23.90
2018,07,14,11,07,23.90
2018,07,14,11,08,23.90
2018,07,14,11,09,23.90
2018,07,14,11,10,24.00
2018,07,14,11,11,24.10
2018,07,14,11,12,24.20
2018,07,14,11,13,24.20
2018,07,14,11,14,24.10
2018,07,14,11,15,24.10
2018,07,14,11,16,24.00
2018,07,14,11,17,23.90
2018,07,14,11,18,23.90
2018,07,14,11,19,23.90
2018,07,14,11,20,23.90
2018,07,14,11,21,23.90
2018,07,14,11,22,23.90
2018,07,14,11,23,23.90
2018,07,14,11,24,24.00
2018,07,14,11,25,24.10
2018,07,14,11,26,24.10
2018,07,14,11,27,24.20
2018,07,14,11,28,24.40
2018,07,14,11,29,24.50
2018,07,14,11,30,24.60
2018,07,14,11,31,24.60
2018,07,14,11,32,24.60
2018,07,14,11,33,24.70
2018,07,14,11,34,24.70
2018,07,14,11,35,24.70
2018,07,14,11,36,24.80
2018,07,14,11,37,24.80
2018,07,14,11,38,24.70
2018,07,14,11,39,24.70
2018,07,14,11,40,24.70
2018,07,14,11,41,24.70
2018,07,14,11,42,24.70
2018,07,14,11,43,24.80
2018,07,14,11,44,24.80
2018,07,14,11,45,24.80
2018,07,14,11,46,24.80
2018,07,14,11,47,24.80
2018,07,14,11,48,24.80
2018,07,14,11,49,24.90
2018,07,14,11,50,25.00
2018,07,14,11,51,25.10
2018,07,14,11,52,25.20
2018,07,14,11,53,25.30
2018,07,14,11,54,25.30
2018,07,14,11,55,25.50
2018,07,14,11,56,25.60
2018,07,14,11,57,25.80
2018,07,14,11,58,25.90
2018,07,14,11,59,25.90
2018,07,14,12,00,25.90
2018,07,14,12,01,25.90
2018,07,14,12,02,25.90
2018,07,14,12,03,26.00
2018,07,14,12,04,26.10
2018,07,14,12,05,26.10
2018,07,14,12,06,26.20
2018,07,14,12,07,26.30
2018,07,14,12,08,26.30
2018,07,14,12,09,26.20
2018,07,14,12,10,26.10
2018,07,14,12,11,26.10
2018,07,14,12,12,26.10
2018,07,14,12,13,26.20
2018,07,14,12,14,26.20
2018,07,14,12,15,26.30
2018,07,14,12,16,26.30
2018,07,14,12,17,26.40
2018,07,14,12,18,26.40
2018,07,14,12,19,26.50
2018,07,14,12,20,26.60
2018,07,14,12,21,26.80
2018,07,14,12,22,26.80
2018,07,14,12,23,26.90
2018,07,14,12,24,27.00
2018,07,14,12,25,26.90
2018,07,14,12,26,26.70
2018,07,14,12,27,26.50
2018,07,14,12,28,26.40
2018,07,14,12,29,26.30
2018,07,14,12,30,26.20
2018,07,14,12,31,26.30
2018,07,14,12,32,26.30
2018,07,14,12,33,26.40
2018,07,14,12,34,26.40
2018,07,14,12,35,26.50
2018,07,14,12,36,26.50
2018,07,14,12,37,26.50
2018,07,14,12,38,26.60
2018,07,14,12,39,26.50
2018,07,14,12,40,26.50
2018,07,14,12,41,26.60
2018,07,14,12,42,26.60
2018,07,14,12,43,26.70
2018,07,14,12,44,26.80
2018,07,14,12,45,26.90
2018,07,14,12,46,27.10
2018,07,14,12,47,27.20
2018,07,14,12,48,27.30
2018,07,14,12,49,27.30
2018,07,14,12,50,27.40
2018,07,14,12,51,27.50
2018,07,14,12,52,27.60
2018,07,14,12,53,27.80
2018,07,14,12,54,27.90
2018,07,14,12,55,27.80
2018,07,14,12,56,27.70
2018,07,14,12,57,27.70
2018,07,14,12,58,27.70
2018,07,14,12,59,27.70
2018,07,14,13,00,27.80
2018,07,14,13,01,27.90
2018,07,14,13,02,27.90
2018,07,14,13,03,28.00
2018,07,14,13,04,28.00
2018,07,14,13,05,28.00
2018,07,14,13,06,28.20
2018,07,14,13,07,28.30
2018,07,14,13,08,28.40
2018,07,14,13,09,28.40
2018,07,14,13,10,28.30
2018,07,14,13,11,28.20
2018,07,14,13,12,28.20
2018,07,14,13,13,28.20
2018,07,14,13,14,28.20
2018,07,14,13,15,28.10
2018,07,14,13,16,28.00
2018,07,14,13,17,28.00
2018,07,14,13,18,28.00
2018,07,14,13,19,28.20
2018,07,14,13,20,28.30
2018,07,14,13,21,28.40
2018,07,14,13,22,28.50
2018,07,14,13,23,28.60
2018,07,14,13,24,28.60
2018,07,14,13,25,28.60
2018,07,14,13,26,28.50
2018,07,14,13,27,28.50
2018,07,14,13,28,28.40
2018,07,14,13,29,28.30
2018,07,14,13,30,28.30
2018,07,14,13,31,28.20
2018,07,14,13,32,28.10
2018,07,14,13,33,28.10
2018,07,14,13,34,28.10
2018,07,14,13,35,28.10
2018,07,14,13,36,28.00
2018,07,14,13,37,27.90
2018,07,14,13,38,27.90
2018,07,14,13,39,27.80
2018,07,14,13,40,27.90
2018,07,14,13,41,28.00
2018,07,14,13,42,28.10
2018,07,14,13,43,28.30
2018,07,14,13,44,28.40
2018,07,14,13,45,28.50
2018,07,14,13,46,28.60
2018,07,14,13,47,28.70
2018,07,14,13,48,28.90
2018,07,14,13,49,29.00
2018,07,14,13,50,29.00
2018,07,14,13,51,28.90
2018,07,14,13,52,28.80
2018,07,14,13,53,28.70
2018,07,14,13,54,28.60
2018,07,14,13,55,28.60
2018,07,14,13,56,28.60
2018,07,14,13,57,28.60
2018,07,14,13,58,28.60
2018,07,14,13,59,28.60
2018,07,14,14,00,28.60
2018,07,14,14,01,28.60
2018,07,14,14,02,28.70
2018,07,14,14,03,28.80
2018,07,14,14,04,29.00
2018,07,14,14,05,29.10
2018,07,14,14,06,29.20
2018,07,14,14,07,29.20
2018,07,14,14,08,29.20
2018,07,14,14,09,29.20
2018,07,14,14,10,29.20
2018,07,14,14,11,29.30
2018,07,14,14,12,29.30
2018,07,14,14,13,29.20
2018,07,14,14,14,29.10
2018,07,14,14,15,29.00
2018,07,14,14,16,28.90
2018,07,14,14,17,28.80
2018,07,14,14,18,28.80
2018,07,14,14,19,28.80
2018,07,14,14,20,28.80
2018,07,14,14,21,29.00
2018,07,14,14,22,29.10
2018,07,14,14,23,29.10
2018,07,14,14,24,29.10
2018,07,14,14,25,29.00
2018,07,14,14,26,29.00
2018,07,14,14,27,29.10
2018,07,14,14,28,29.10
2018,07,14,14,29,29.10
2018,07,14,14,30,29.10
2018,07,14,14,31,29.20
2018,07,14,14,32,29.20
2018,07,14,14,33,29.10
2018,07,14,14,34,29.20
2018,07,14,14,35,29.20
2018,07,14,14,36,29.20
2018,07,14,14,37,29.30
2018,07,14,14,38,29.40
2018,07,14,14,39,29.50
2018,07,14,14,40,29.60
2018,07,14,14,41,29.60
2018,07,14,14,42,29.60
2018,07,14,14,43,29.50
2018,07,14,14,44,29.50
2018,07,14,14,45,29.60
2018,07,14,14,46,29.60
2018,07,14,14,47,29.60
2018,07,14,14,48,29.70
2018,07,14,14,49,29.70
2018,07,14,14,50,29.70
2018,07,14,14,51,29.70
2018,07,14,14,52,29.70
2018,07,14,14,53,29.80
2018,07,14,14,54,29.80
2018,07,14,14,55,29.70
2018,07,14,14,56,29.60
2018,07,14,14,57,29.50
2018,07,14,14,58,29.40
2018,07,14,14,59,29.30
2018,07,14,15,00,29.40
2018,07,14,15,01,29.30
2018,07,14,15,02,29.30
2018,07,14,15,03,29.30
2018,07,14,15,04,29.30
2018,07,14,15,05,29.30
2018,07,14,15,06,29.20
2018,07,14,15,07,29.20
2018,07,14,15,08,29.20
2018,07,14,15,09,29.30
2018,07,14,15,10,29.30
2018,07,14,15,11,29.40
2018,07,14,15,12,29.50
2018,07,14,15,13,29.50
2018,07,14,15,14,29.50
2018,07,14,15,15,29.50
2018,07,14,15,16,29.50
2018,07,14,15,17,29.40
2018,07,14,15,18,29.40
2018,07,14,15,19,29.40
2018,07,14,15,20,29.50
2018,07,14,15,21,29.50
2018,07,14,15,22,29.60
2018,07,14,15,23,29.60
2018,07,14,15,24,29.70
2018,07,14,15,25,29.70
2018,07,14,15,26,29.60
2018,07,14,15,27,29.60
2018,07,14,15,28,29.50
2018,07,14,15,29,29.40
2018,07,14,15,30,29.40
2018,07,14,15,31,29.40
2018,07,14,15,32,29.50
2018,07,14,15,33,29.60
2018,07,14,15,34,29.70
2018,07,14,15,35,29.60
2018,07,14,15,36,29.70
2018,07,14,15,37,29.70
2018,07,14,15,38,29.70
2018,07,14,15,39,29.60
2018,07,14,15,40,29.50
2018,07,14,15,41,29.50
2018,07,14,15,42,29.40
2018,07,14,15,43,29.50
2018,07,14,15,44,29.50
2018,07,14,15,45,29.60
2018,07,14,15,46,29.60
2018,07,14,15,47,29.60
2018,07,14,15,48,29.60
2018,07,14,15,49,29.60
2018,07,14,15,50,29.60
2018,07,14,15,51,29.70
2018,07,14,15,52,29.60
2018,07,14,15,53,29.60
2018,07,14,15,54,29.60
2018,07,14,15,55,29.70
2018,07,14,15,56,29.80
2018,07,14,15,57,29.90
2018,07,14,15,58,29.90
2018,07,14,15,59,29.90
2018,07,14,16,00,29.80
2018,07,14,16,01,29.80
2018,07,14,16,02,29.80
2018,07,14,16,03,29.80
2018,07,14,16,04,29.70
2018,07,14,16,05,29.60
2018,07,14,16,06,29.60
2018,07,14,16,07,29.60
2018,07,14,16,08,29.60
2018,07,14,16,09,29.60
2018,07,14,16,10,29.60
2018,07,14,16,11,29.60
2018,07,14,16,12,29.60
2018,07,14,16,13,29.50
2018,07,14,16,14,29.50
2018,07,14,16,15,29.50
2018,07,14,16,16,29.60
2018,07,14,16,17,29.70
2018,07,14,16,18,29.80
2018,07,14,16,19,29.90
2018,07,14,16,20,29.90
2018,07,14,16,21,30.00
2018,07,14,16,22,30.00
2018,07,14,16,23,30.00
2018,07,14,16,24,30.00
2018,07,14,16,25,29.90
2018,07,14,16,26,29.80
2018,07,14,16,27,29.70
2018,07,14,16,28,29.80
2018,07,14,16,29,29.80
2018,07,14,16,30,29.90
2018,07,14,16,31,30.00
2018,07,14,16,32,30.00
2018,07,14,16,33,30.20
2018,07,14,16,34,30.30
2018,07,14,16,35,30.20
2018,07,14,16,36,30.20
2018,07,14,16,37,30.30
2018,07,14,16,38,30.30
2018,07,14,16,39,30.40
2018,07,14,16,40,30.50
2018,07,14,16,41,30.60
2018,07,14,16,42,30.60
2018,07,14,16,43,30.60
2018,07,14,16,44,30.70
2018,07,14,16,45,30.70
2018,07,14,16,46,30.70
2018,07,14,16,47,30.60
2018,07,14,16,48,30.60
2018,07,14,16,49,30.40
2018,07,14,16,50,30.30
2018,07,14,16,51,30.30
2018,07,14,16,52,30.30
2018,07,14,16,53,30.30
2018,07,14,16,54,30.50
2018,07,14,16,55,30.70
2018,07,14,16,56,30.80
2018,07,14,16,57,30.80
2018,07,14,16,58,30.80
2018,07,14,16,59,30.80
2018,07,14,17,00,30.80
2018,07,14,17,01,30.70
2018,07,14,17,02,30.60
2018,07,14,17,03,30.50
2018,07,14,17,04,30.50
2018,07,14,17,05,30.50
2018,07,14,17,06,30.50
2018,07,14,17,07,30.60
2018,07,14,17,08,30.60
2018,07,14,17,09,30.60
2018,07,14,17,10,30.60
2018,07,14,17,11,30.70
2018,07,14,17,12,30.70
2018,07,14,17,13,30.70
2018,07,14,17,14,30.70
2018,07,14,17,15,30.70
2018,07,14,17,16,30.70
2018,07,14,17,17,30.60
2018,07,14,17,18,30.50
2018,07,14,17,19,30.40